Terug naar catalogus

STARLINK-4691

ActiefCommunicatieVLEO
NORAD 53588·PAYLOAD·🇺🇸 United States

Gelanceerd Aug 28, 2022 vanaf Cape Canaveral Space Force Station

Loading…

Volgende Passages (komende 24 uur)

TLE

VersSource: CelesTrak SupGP

Epoch: Sep 14, 2026, 21:04 UTC

1 53588C 22104A   26257.87826389 -.00058566  00000+0 -16760-2 0  2571
2 53588  53.1600 110.7158 0001376  84.4679 347.6674 15.35421760    16

Volg STARLINK-4691 in realtime met AllMySat

Download on the App Store